Regional Weather Roundup
Issued by NWS

Home | Current Version | Previous Version | Graphics & Text | Print | Product List | Glossary On
Versions: 1 2 3 4 5 6 7 8 9 10 11 12 13 14 15 16 17 18 19 20 21 22 23 24 25 26 27 28 29 30 31 32 33 34 35 36 37 38 39 40 41 42 43 44 45 46 47 48 49 50
539
ASUS43 KFSD 300102
RWRSD

WEATHER ROUNDUP FOR SOUTH DAKOTA
NATIONAL WEATHER SERVICE SIOUX FALLS SD
800 PM CDT FRI JUL 29 2016

NOTE: "FAIR" INDICATES FEW OR NO CLOUDS BELOW 12,000 FEET WITH NO
SIGNIFICANT WEATHER AND/OR OBSTRUCTIONS TO VISIBILITY.


SDZ001>005-009-010-012>017-300200-
NORTHWEST AND NORTH CENTRAL SOUTH DAKOTA

CITY           SKY/WX    TMP DP  RH WIND       PRES   REMARKS
BUFFALO          N/A     81  51  35 VRB3      29.92F
FAITH            N/A     78  55  44 SE10      29.99S
MOBRIDGE       MOSUNNY   82  55  39 SE9       29.96S
$$

SDZ012>016-024>037-041>051-057-063-072>074-300200-
SOUTHWEST AND SOUTH CENTRAL SOUTH DAKOTA

CITY           SKY/WX    TMP DP  RH WIND       PRES   REMARKS
RAPID CTY ARPT SUNNY     76  55  48 VRB3      30.01F
PIERRE         MOSUNNY   80  55  42 SE10      29.97S
CUSTER         SUNNY     66  52  60 NE5       30.15S
ELLSWORTH AFB  SUNNY     77  56  47 S6        30.00F
PHILIP         CLOUDY    80  58  46 SE10      29.97F
PINE RIDGE     CLOUDY    77  61  57 S10       30.01F
WINNER         FAIR      77  59  53 SE8       30.02S
$$

SDZ004>011-016>023-039-040-300200-
NORTHEAST SOUTH DAKOTA

CITY           SKY/WX    TMP DP  RH WIND       PRES   REMARKS
ABERDEEN       NOT AVBL
WATERTOWN      CLEAR     75  56  51 S7        30.03S
BROOKINGS      CLEAR     74  56  53 E8        30.03F
SISSETON         N/A     75  61  61 SE5       30.00S
$$

SDZ017-020-022-023-036>040-048>070-300200-
SOUTHEAST SOUTH DAKOTA

CITY           SKY/WX    TMP DP  RH WIND       PRES   REMARKS
SIOUX FALLS    PTCLDY    74  55  51 E10       30.03S
HURON          CLEAR     78  53  41 SE12      29.99F
CHAMBERLAIN    CLOUDY    79  59  49 S7        30.01R
MITCHELL       CLEAR     75  54  47 SE7       30.01F
YANKTON        CLEAR     75  55  50 E7        30.00S
$$

ABBREVIATIONS USED IN REMARKS
   TC - TEMPERATURE IN CELSIUS
  WCI - WIND CHILL INDEX
   HX - HEAT INDEX
  VSB - VISIBILITY





USA.gov is the U.S. government's official web portal to all federal, state and local government web resources and services.